Location: Sternwarte ZA, Rosenfeld-Brittheim
(48.2889°N, 8.6789°E)
Time: 05:58:53
(UTC+02:00)

ISS - Pass Details

Date: 01 April 2020
Orbit: 417 x 423 km, 51.6° (Epoch: 29 March)

Event Time Altitude Azimuth Distance (km) Brightness Sun altitude
Rises 22:34:06 0° 286° (WNW) 2,362 1.1 -24.5°
Reaches altitude 10° 22:36:35 10° 269° (W) 1,495 -0.4 -24.8°
Enters shadow 22:37:46 16° 251° (WSW) 1,194 -1.2 -24.9°
